AirNav   Pilot Hours Calculator
 
 1067 users online  

KPVG Hampton Roads Executive Airport
Norfolk, Virginia, USA

GOING TO NORFOLK?


FAA INFORMATION EFFECTIVE 22 APRIL 2021

Location

FAA Identifier: PVG
Lat/Long: 36-46-50.7533N 076-27-04.6093W
36-46.845888N 076-27.076822W
36.7807648,-76.4512804
(estimated)
Elevation: 28 ft. / 8.5 m (surveyed)
Variation: 10W (2000)
From city: 7 miles SW of NORFOLK, VA
Time zone: UTC -4 (UTC -5 during Standard Time)
Zip code: 23321

Airport Operations

Airport use: Open to the public
Control tower: no
ARTCC: WASHINGTON CENTER
FSS: LEESBURG FLIGHT SERVICE STATION
NOTAMs facility: DCA (NOTAM-D service available)
Attendance: 0630 - 2130
Pattern altitude: TPA 677 FT AGL FOR HELICOPTERS.
Wind indicator: lighted
Segmented circle: no
Lights: ACTVT MIRL RYS 02/20; REIL 10/28; PAPI RY 10/28; HIRL RY 10/28 - CTAF.
Beacon: white-green (lighted land airport)
Operates sunset to sunrise.

Airport Communications

CTAF/UNICOM: 122.725
WX AWOS-3PT: 118.375 (757-465-2175)
NORFOLK APPROACH: 118.9 125.2
NORFOLK DEPARTURE: 118.9 125.2
WX AWOS-3 at SFQ (9 nm SW): 119.375 (757-934-3942)
WX AWOS-3 at CPK (9 nm SE): 123.675 (757-204-4290)
WX ASOS at ORF (14 nm NE): PHONE 757-460-9348

Nearby radio navigation aids

VOR radial/distance  VOR name  Freq  Var
ORFr248/13.8NORFOLK VORTAC116.9007W
FKNr091/27.3FRANKLIN VORTAC110.6009W
CVIr049/31.8COFIELD VORTAC114.6009W
ECGr344/34.1ELIZABETH CITY VOR/DME112.5007W

 
NDB name  Hdg/Dist  Freq  Var  ID
INGLE259/10.332909WOR --- .-.
WAKEFIELD126/29.027411WAKQ .- -.- --.-
WOODVILLE357/31.925410WLLW .-.. .-.. .--

Airport Services

Fuel available: 100LL JET-A+
Parking: hangars and tiedowns
Airframe service: MAJOR
Powerplant service: MAJOR
Bottled oxygen: NONE
Bulk oxygen: NONE

Runway Information

Runway 10/28

Dimensions: 5350 x 100 ft. / 1631 x 30 m
Surface: asphalt/grooved, in good condition
Weight bearing capacity: 
Double wheel: 75.0
Runway edge lights: high intensity
RUNWAY 10  RUNWAY 28
Latitude: 36-46.850430N36-46.813307N
Longitude: 076-27.728995W076-26.633872W
Elevation: 27.9 ft.23.1 ft.
Traffic pattern: right
FIXED WING ACFT.
left
Runway heading: 102 magnetic, 092 true282 magnetic, 272 true
Markings: precision, in good conditionnonprecision, in good condition
Visual slope indicator: 4-light PAPI on left (3.00 degrees glide path)4-light PAPI on left (3.00 degrees glide path)
Runway end identifier lights: yesyes
Touchdown point: yes, no lightsyes, no lights
Instrument approach: ILS/DME
Obstructions: none97 ft. brush, 2469 ft. from runway, 121 ft. right of centerline, 23:1 slope to clear
BRUSH LCTD APRXLY 240 FT FM CNTRLN.

Runway 2/20

Dimensions: 3525 x 70 ft. / 1074 x 21 m
Surface: asphalt, in poor condition
RWY HAS NMRS CRACKS. TWYS SUPPORTING RWY HAVE NMRS CRACKS AND FOD POTENTIAL.
Weight bearing capacity: 
Single wheel: 12.5
Runway edge lights: medium intensity
RUNWAY 2  RUNWAY 20
Latitude: 36-46.580053N36-47.154263N
Longitude: 076-26.972608W076-26.863460W
Elevation: 21.2 ft.19.6 ft.
Traffic pattern: leftright
FIXED WING ACFT.
Runway heading: 019 magnetic, 009 true199 magnetic, 189 true
Displaced threshold: 898 ft.928 ft.
Markings: nonprecision, in fair conditionnonprecision, in fair condition
Touchdown point: yes, no lightsyes, no lights
Obstructions: 10 ft. road, 244 ft. from runway, 125 ft. right of centerline, 4:1 slope to clear
APCH RATIO 94:1 TO DSPLCD THR (ROAD); APCH RATIO 22:1 TO DSPLCD THR FM 70' TREE 883' FM RWY END, 189' LEFT.
75 ft. trees, 929 ft. from runway, 174 ft. left of centerline, 9:1 slope to clear
APCH RATIO 22:1 TO DSPLCD THR CTLG OBST; APCH RATIO 21:1 TO DSPLCD THR FM 104 FT TREE 1505 FT FM RWY END, 108 FT RIGHT.

Airport Ownership and Management from official FAA records

Ownership: Privately-owned
Owner: VIRGINIA AVIATION ASSOCIATES, L.L.C
5172 W. MILITARY HWY, SUITE A
CHESAPEAKE, VA 23321
Phone 757-465-0260
Manager: STEVE FOX
5172 W. MILITARY HWY
CHESAPEAKE, VA 23321
Phone 757-465-0260
STEVEN I. FOX AUTH PSNAL TO MAKE CHGS 757-465-0260.

Airport Operational Statistics

Aircraft based on the field: 120
Single engine airplanes: 92
Multi engine airplanes: 15
Jet airplanes: 2
Helicopters: 11
    
Aircraft operations: avg 191/day *
72% transient general aviation
25% local general aviation
2% air taxi
<1% military
* for 12-month period ending 31 October 2018

Additional Remarks

MULTIPLE 1000 FT AGL TWRS 1.5 NM NW OF FLD.
DEER ON & INVOF ARPT.
EXTENSIVE HELICOPTER TRAINING.
RY 10/28 PREFERRED USE RY. BE ALERT FOR MULTIPLE TALL TWRS NW OF ARPT.
FOR CD CTC NORFOLK APCH AT 757-464-0757.

Instrument Procedures

NOTE: All procedures below are presented as PDF files. If you need a reader for these files, you should download the free Adobe Reader.

NOT FOR NAVIGATION. Please procure official charts for flight.
FAA instrument procedures published for use from 22 April 2021 at 0901Z to 20 May 2021 at 0900z.

 
STARs - Standard Terminal Arrivals
DRONE TWO   2 pages: [1] [2] (319KB)
TERKS TWO   download (195KB)
 
IAPs - Instrument Approach Procedures
ILS OR LOC RWY 10   download (287KB)
RNAV (GPS) RWY 10   download (237KB)
RNAV (GPS) RWY 28   download (198KB)
NOTE: Special Alternate Minimums apply   download (147KB)
NOTE: Special Take-Off Minimums/Departure Procedures apply   download

Other nearby airports with instrument procedures:

KSFQ - Suffolk Executive Airport (9 nm SW)
KCPK - Chesapeake Regional Airport (9 nm SE)
KNGU - Norfolk Naval Station (Chambers Field) (12 nm NE)
KORF - Norfolk International Airport (14 nm NE)
KLFI - Langley Air Force Base (19 nm N)
 
Loc | Ops | Rwys | IFR | FBO | Links
Com | Nav | Svcs | Stats | Notes
Area around KPVG (Hampton Roads Executive Airport)
 
Road maps at: MapQuest Bing Google
 
Aerial photo
WARNING: Photo may not be current or correct
Aerial photo of KPVG (Hampton Roads Executive Airport)
Photo taken 07-Mar-2016
looking east.

Do you have a better or more recent aerial photo of Hampton Roads Executive Airport that you would like to share? If so, please send us your photo.

 
Sectional chart

 
Airport diagram
CAUTION: Diagram may not be current
Diagram of KPVG (Hampton Roads Executive Airport)
 
Airport distance calculator
Flying to Hampton Roads Executive Airport? Find the distance to fly.

From to KPVG

Sunrise and sunset
Times for 09-May-2021
 Local
(UTC-4)
 Zulu
(UTC)
Morning civil twilight05:3609:36
Sunrise06:0510:05
Sunset20:0024:00
Evening civil twilight20:2800:28

Current date and time
Zulu (UTC)  09-May-2021 19:18:14
Local (UTC-4)  09-May-2021 15:18:14
 
METAR
KPVG 091856Z AUTO 18011G17KT 10SM CLR 26/12 A3000 RMK AO2 SLP160 T02560117 PNO $
KSFQ 
9nm SW 
091855Z AUTO 17011G15KT 10SM CLR 25/11 A3000 RMK AO2 T02470114
KCPK 
9nm SE 
091855Z AUTO 16011G17KT 140V200 10SM CLR 23/10 A3001 RMK AO2 T02270100
KNGU 
12nm NE 
091859Z 17008G21KT 10SM FEW250 23/10 A3000 RMK AO2 SLP158 T02280100 $
KORF 
14nm NE 
091851Z 16012G22KT 10SM CLR 23/10 A3000 RMK AO2 SLP158 T02330100 $
KNFE 
16nm E 
091856Z AUTO 15016G19KT 10SM CLR 21/11 A3002 RMK AO2 SLP166 T02110106 $
KLFI 
18nm N 
091856Z AUTO 18013KT 10SM CLR 23/10 A2998 RMK AO2 SLP159 T02300101 $
TAF
KNGU 
12nm NE 
0915/1015 17010G15KT 9999 BKN095 QNH2986INS BECMG 0923/1001 20015G20KT 9999 FEW050 SCT200 QNH2978INS BECMG 1003/1004 21015G20KT 9999 VCSH FEW015 FEW100 SCT150 QNH2974INS TEMPO 1004/1010 8000 -SHRA FEW015 BKN030 OVC070 T16/0915Z T22/0923Z FN00204
KORF 
14nm NE 
091726Z 0918/1018 17013KT P6SM FEW250 FM100100 21016G23KT P6SM BKN200 FM101300 23013G20KT 6SM -SHRA OVC040 FM101500 25011KT 6SM -SHRA OVC025
KLFI 
18nm N 
091820Z 0918/1023 17010G15KT 9999 FEW055 SCT250 QNH2984INS BECMG 0922/0923 19012KT 9999 FEW045 SCT120 BKN250 WS020/21045KT QNH2975INS BECMG 1005/1006 20015G25KT 9999 SCT040 BKN100 OVC220 510003 QNH2970INS BECMG 1012/1013 22015G25KT 8000 -SHRA SCT017 BKN024 OVC040 510003 QNH2970INS BECMG 1016/1017 23015G25KT 4000 SHRA BKN017 OVC024 510003 QNH2975INS TEMPO 1017/1021 VRB25G35KT 3200 TSRA BKN012CB OVC030 BECMG 1022/1023 30012G20KT 9999 NSW SCT017 BKN120 BKN200 QNH2985INS TX24/0921Z TN16/1012Z
NOTAMs
Click for the latest NOTAMs
NOTAMs are issued by the DoD/FAA and will open in a separate window not controlled by AirNav.

 

 
 

FBO, Fuel Providers, and Aircraft Ground Support

  
 Business Name 
 
 Contact 
 
 Services / Description 
 
Fuel Prices
 
Comments
  
Virginia Aviation Associates UNICOM 122.725
757-488-3166
[web site]
[email]
Only 11 miles from downtown Norfolk, we provide both 100LL and Jet A fuel and guarantee exceptional service with quick turnarounds while you wait in our comfortable lobby area or pilot lounge with access to computers, fax/copy machines, courtesy cars, an on-site restaurant, and on-site rental cars starting at $23.50/day.
More info and photos of Virginia Aviation Associates
 
Avfuel Contract Fuel   Everest Fuel   UVair   World Fuel Contract Fuel  
 
Titan
100LL Jet A
AS $4.69 --- 
FS $5.29 $3.99 
GUARANTEED
 
   7 read write
AS=Assisted/Self Service
FS=Full service
Update Fuel Prices
 

Aviation Businesses, Services, and Facilities

  
 Business Name 
 
 Contact 
 
 Services / Description 
 
Distance
 
Comments
  
Aerodyne Corporation 757-488-2898
[web site]
[email]
Oxygen service, Aircraft maintenance, Aircraft parts
 
FAA-Approved Repair Station  
 
More info about Aerodyne Corporation
on airport  
   write
 Chesapeake Bay Helicopters, Inc.
757-465-9936
[web site]
[email]
Aircraft rental, Aerial tours / aerial sightseeing, Aircraft charters, Aerial photography, Aircraft maintenance, Avionics sales and service, Aircraft modifications
 
FAA-Approved Repair Station  
 
More info about Chesapeake Bay Helicopters, Inc.
on airport  
   write
Bay Avionics 757-488-7700
no information available

If you are affiliated with Bay Avionics and would like to show here your services, contact info, web link, logo, and more, click here
on airport  
   write
 

Would you like to see your business listed on this page?

 If your business provides an interesting product or service to pilots, flight crews, aircraft, or users of the Hampton Roads Executive Airport, you should consider listing it here.  To start the listing process, click on the button below
 
Add a business
 

Other Pages about Hampton Roads Executive Airport

www.flypvg.com
 
Update a link
 
Copyright © AirNav, LLC. All rights reserved. Privacy Policy  Contact